This is the latest recevied weather packets stored in our database for station/object VE6KEE-13. If no packets are shown the sender has not sent any weather packets the latest 10 day(s).
| Time | Temp. | Humidity | Pressure | Rain* | Wind** | Luminosity | Snow |
|---|---|---|---|---|---|---|---|
| 1777732328 | 15° C | 41% | 1020.9 hPa | 0 mm | - | - | - |
| 1777731420 | 13.89° C | 44% | 1021.1 hPa | 0 mm | - | - | - |
| 1777730523 | 12.78° C | 46% | 1021 hPa | 0 mm | - | - | - |
| 1777729619 | 12.22° C | 48% | 1021 hPa | 0 mm | - | - | - |
| 1777728722 | 11.11° C | 48% | 1020.9 hPa | 0 mm | - | - | - |
| 1777727817 | 11.11° C | 48% | 1021 hPa | 0 mm | - | - | - |
| 1777726922 | 10.56° C | 48% | 1020.9 hPa | 0 mm | - | - | - |
| 1777726017 | 10.56° C | 48% | 1020.7 hPa | 0 mm | - | - | - |
| 1777725116 | 10.56° C | 48% | 1020.9 hPa | 0 mm | - | - | - |
| 1777724214 | 10.56° C | 47% | 1020.7 hPa | 0 mm | - | - | - |
| 1777723316 | 10.56° C | 47% | 1020.7 hPa | 0 mm | - | - | - |
| 1777722416 | 10.56° C | 46% | 1020.6 hPa | 0 mm | - | - | - |
| 1777721521 | 10.56° C | 45% | 1020.5 hPa | 0 mm | - | - | - |
| 1777720611 | 10.56° C | 44% | 1020.1 hPa | 0 mm | - | - | - |
| 1777719710 | 11.11° C | 43% | 1020.2 hPa | 0 mm | - | - | - |
| 1777718810 | 11.11° C | 42% | 1020.3 hPa | 0 mm | - | - | - |
| 1777717909 | 11.11° C | 42% | 1020.1 hPa | 0 mm | - | - | - |
| 1777717010 | 11.11° C | 41% | 1020 hPa | 0 mm | - | - | - |
| 1777716115 | 11.11° C | 40% | 1019.9 hPa | 0 mm | - | - | - |
| 1777715206 | 11.67° C | 40% | 1019.7 hPa | 0 mm | - | - | - |
| 1777714315 | 11.67° C | 40% | 1019.5 hPa | 0 mm | - | - | - |
| 1777713404 | 11.67° C | 39% | 1019.5 hPa | 0 mm | - | - | - |
| 1777712509 | 12.22° C | 39% | 1019.5 hPa | 0 mm | - | - | - |
| 1777711604 | 12.22° C | 39% | 1019.3 hPa | 0 mm | - | - | - |
| 1777710709 | 12.22° C | 38% | 1019.3 hPa | 0 mm | - | - | - |
* Rain since midnight (hover to see other rain measurements)
** Current wind speed in m/s (hover to see current wind gust speed)